Temperature
23 22 21 21 24 26 28 30 31 31 30 30 30 30 29 28 26 24 23 23 22 21 21 21 20 20 20 19 19 19 19 19 19 19 19 18 18 18 18 18 18 18 18 18 18 18 18 18 18
22 21 22 24 26 27 29 30 30 31 31 30 30 29 28 27 26 24 23 23 22 21 21 20 20 20 20 19 19 19 19 19 19 19 18 18 18 18 18 18 18 18 18 18 18 18 18 18 18
22 22 24 26 27 29 29 31 31 31 31 30 30 28 27 26 25 24 23 23 22 21 21 21 20 20 20 20 19 19 19 19 18 18 18 18 18 18 18 18 18 18 18 18 18 18 18 18 18
22 24 26 28 29 30 31 31 32 31 31 30 30 28 26 25 25 24 23 23 22 21 21 21 21 20 20 20 19 19 19 19 18 18 18 18 18 18 18 18 18 18 18 18 18 18 18 18 18
24 26 28 28 30 31 32 32 31 31 31 30 29 28 26 25 24 24 23 23 22 22 21 21 21 20 20 20 19 19 19 19 19 18 18 19 19 18 18 18 18 18 18 18 18 18 19 18 18
26 27 28 29 30 31 32 32 31 31 31 30 29 27 26 25 24 24 23 23 22 22 21 21 21 20 20 20 19 19 19 19 19 19 19 19 19 18 18 18 18 18 18 18 18 19 19 19 19
27 28 29 30 31 31 32 32 31 31 31 30 29 28 26 25 24 24 23 23 22 22 21 21 20 20 20 20 19 19 19 19 19 19 19 19 19 19 19 18 18 18 18 18 19 19 19 19 19
29 29 30 31 31 31 32 31 31 30 30 29 29 28 26 25 24 24 23 23 22 22 21 21 20 20 20 20 20 19 19 19 19 19 19 19 19 19 19 19 19 19 19 19 19 19 19 19 19
30 30 30 31 31 32 32 32 31 30 30 29 28 27 26 25 25 24 23 23 22 22 21 21 20 20 20 20 19 19 19 19 19 19 19 19 18 18 19 19 19 19 19 19 19 19 19 19 19
31 30 31 33 33 33 32 32 31 31 30 29 27 26 26 25 25 24 23 23 22 21 21 21 20 20 20 20 19 19 19 19 19 19 19 19 18 18 18 19 19 19 19 19 19 19 19 19 18
32 31 32 33 33 33 33 32 31 31 29 29 27 27 26 25 25 24 23 23 22 21 21 21 20 20 20 20 20 19 19 19 19 19 19 19 19 19 19 19 19 19 19 19 18 18 18 18 18
33 33 33 33 33 33 32 32 31 30 29 28 27 27 26 26 25 24 24 23 22 22 21 21 20 20 20 20 20 20 19 19 19 19 19 19 19 19 19 19 19 19 19 18 18 18 18 18 18
33 33 33 33 33 33 32 31 30 30 29 28 28 27 26 26 25 24 24 23 22 22 21 21 20 20 20 20 20 20 20 19 19 19 19 19 19 19 19 18 19 18 18 18 19 18 18 18 18
33 33 33 33 33 33 32 32 31 29 29 28 28 27 27 26 25 24 24 23 22 22 21 21 20 20 20 20 20 19 19 20 19 19 19 19 19 19 19 19 19 18 18 18 18 18 19 18 19
33 32 32 33 32 33 32 31 30 30 29 28 28 27 27 26 25 24 23 23 22 22 21 21 20 20 20 20 19 19 20 20 19 19 19 19 19 19 19 19 18 18 18 18 19 18 19 19 19
32 31 31 32 33 33 32 30 30 30 29 28 28 28 27 26 25 24 24 23 22 22 21 21 21 20 20 20 20 20 20 20 19 19 19 19 19 19 19 19 19 19 19 19 19 19 19 19 19
31 30 31 31 33 33 32 31 31 30 30 29 28 28 27 26 25 24 24 23 22 22 21 21 21 20 20 20 20 20 20 20 19 19 19 19 19 19 19 19 19 19 19 18 18 19 19 19 19
31 32 32 32 33 33 32 31 31 31 30 29 28 28 27 26 25 25 24 23 22 21 21 21 20 20 20 20 20 20 19 19 19 19 19 19 19 19 19 19 19 19 19 18 18 19 19 19 19
33 32 32 32 33 33 32 31 31 30 30 30 29 28 27 26 26 25 24 23 22 21 21 21 21 20 20 20 20 19 19 19 19 19 19 19 19 19 19 19 19 18 18 18 19 19 19 19 19
33 32 32 33 33 33 32 31 31 30 30 29 29 28 27 26 26 25 24 23 22 22 21 21 21 20 20 20 20 20 19 19 19 19 19 19 19 19 19 19 18 18 18 18 18 18 18 19 19
33 32 32 32 33 33 32 31 30 29 29 29 29 29 28 27 26 25 24 23 23 22 21 21 21 20 20 20 20 20 19 19 19 19 19 19 19 19 19 19 18 18 18 18 18 18 18 19 19
32 33 33 32 32 31 31 29 29 29 29 29 29 29 28 27 26 25 24 23 23 22 21 21 21 20 20 20 20 19 19 19 19 19 19 19 19 19 19 18 18 18 18 18 18 18 18 18 18
33 33 33 32 31 30 30 30 29 29 28 29 30 29 29 27 27 26 25 24 23 22 22 21 21 20 20 20 19 19 19 19 19 19 19 19 19 19 18 18 18 18 18 18 18 18 18 18 18
34 33 32 31 30 28 29 30 29 29 29 30 30 29 28 28 27 26 25 24 23 22 22 21 21 20 20 20 19 19 19 19 19 19 19 19 19 19 18 18 18 18 18 18 18 18 18 18 18
33 31 29 28 28 28 30 30 30 31 31 31 30 29 28 27 26 25 25 24 23 22 22 21 21 20 20 20 20 19 19 19 19 19 19 19 19 18 18 18 18 18 18 18 18 18 17 17 17
32 31 29 28 27 29 30 29 30 31 32 31 30 29 28 27 26 26 25 24 23 22 22 21 21 20 20 20 19 19 19 19 19 19 19 19 18 18 18 18 18 18 18 17 17 17 17 17 17
32 32 32 30 29 29 30 29 29 30 31 31 30 29 28 27 26 25 25 24 23 23 22 21 20 20 20 19 19 19 19 19 19 19 19 18 18 18 18 18 18 18 17 17 17 17 17 17 17
34 33 32 31 28 28 28 28 28 28 29 30 30 29 28 27 26 25 24 24 23 23 22 21 20 20 20 19 19 19 19 19 19 19 18 18 18 18 18 18 17 17 17 17 17 17 16 16 16
33 32 32 31 30 28 27 28 30 29 30 29 30 29 28 27 26 25 24 24 23 22 22 21 21 20 20 19 19 19 18 18 18 18 18 18 18 18 18 17 17 17 17 17 17 16 16 16 16
33 32 32 30 29 29 28 28 30 30 30 30 30 29 28 27 26 25 24 23 23 22 22 21 21 20 20 19 19 19 18 18 18 18 18 17 17 17 17 17 17 17 17 17 16 16 16 16 15
Wind_Speed
10 11 9 6 5 3 6 11 12 12 12 11 11 12 15 15 10 7 6 8 8 9 9 8 8 7 6 6 6 6 5 5 5 5 5 5 6 6 5 5 4 4 4 5 5 5 5 5 5
10 11 8 5 3 3 9 11 12 12 10 9 11 13 15 14 12 8 7 6 8 9 9 8 9 7 7 6 6 6 6 6 5 5 5 6 6 6 5 4 4 4 4 4 4 5 5 5 5
11 12 6 3 3 7 9 10 10 10 10 9 12 14 13 11 11 8 7 7 8 9 10 10 10 8 7 7 7 7 7 6 6 6 5 5 5 5 5 4 4 3 3 3 3 4 5 5 5
7 7 5 2 5 8 10 10 9 10 10 10 11 11 13 11 9 9 8 8 9 10 11 10 10 9 8 7 7 7 6 6 5 5 4 4 5 5 4 4 3 3 3 2 2 3 5 6 6
8 6 3 3 7 9 10 10 9 11 11 12 13 14 13 12 11 9 9 9 9 9 10 9 10 9 8 8 8 7 6 6 6 5 4 4 5 6 4 4 3 3 2 2 2 3 5 6 6
5 4 3 4 7 9 10 10 10 11 11 11 12 13 11 10 10 9 10 8 9 8 8 9 10 10 8 8 8 7 7 6 6 5 4 5 6 6 5 5 4 3 3 2 2 3 5 6 6
7 6 3 3 6 9 10 9 10 9 11 10 10 11 9 9 9 9 9 9 9 9 8 7 8 8 7 8 8 8 8 7 6 5 5 5 6 7 6 6 4 4 3 2 2 3 4 6 6
6 5 6 5 8 9 8 9 10 9 10 9 9 10 8 8 9 10 10 10 9 8 8 7 7 6 5 7 8 8 9 8 7 6 5 5 6 7 7 6 5 5 4 3 3 4 4 6 7
6 3 5 7 7 7 7 9 8 7 10 13 14 13 11 10 10 9 9 9 8 8 7 7 7 5 5 6 8 8 9 8 6 5 6 5 3 4 6 6 7 6 5 5 4 4 4 5 6
2 2 4 5 6 6 6 7 7 7 10 12 12 12 11 10 10 9 8 8 8 7 7 7 6 5 4 5 5 5 6 6 5 4 3 3 2 2 3 6 6 7 6 6 6 5 4 4 4
1 1 2 3 6 6 6 6 7 8 8 9 10 10 9 10 10 9 8 8 7 6 8 7 7 5 5 4 4 3 3 4 4 5 4 3 2 2 3 3 4 5 5 4 4 5 4 3 3
2 2 2 3 4 4 6 6 8 9 9 10 11 10 9 9 9 8 7 8 7 7 8 7 7 6 5 5 3 3 3 3 4 5 4 2 2 2 2 1 2 1 1 3 2 1 1 1 2
3 2 2 0 1 5 6 6 7 9 10 10 10 10 8 10 9 8 8 8 8 7 7 8 7 7 6 5 3 4 4 4 4 4 4 3 3 2 2 2 2 1 1 2 2 1 1 0 0
5 3 3 1 1 4 5 6 6 8 8 10 9 8 8 9 9 8 7 7 7 7 8 7 6 6 5 4 3 3 3 4 4 5 5 3 3 3 2 3 2 2 2 2 1 1 1 1 1
4 4 4 3 2 2 4 5 5 8 9 8 8 8 9 8 9 8 7 7 7 8 7 6 6 7 5 4 3 3 3 4 4 4 5 5 4 3 2 2 2 2 1 1 1 1 0 1 1
6 7 6 4 4 3 3 3 7 8 10 9 7 9 8 7 8 8 8 7 8 8 7 6 6 7 5 4 3 3 3 4 3 4 4 5 4 3 1 1 2 1 1 1 1 1 0 1 1
7 7 6 4 6 3 3 4 8 8 9 9 8 8 9 8 7 7 8 9 8 8 7 6 6 6 5 3 3 3 3 3 3 4 4 4 3 3 2 2 2 1 1 1 1 2 1 0 1
6 5 4 5 4 3 3 5 8 9 9 9 9 9 8 8 8 8 8 9 9 8 7 5 5 4 3 2 2 2 3 3 3 3 4 4 3 3 2 1 1 1 2 2 2 2 1 0 1
9 6 6 5 3 4 3 5 6 5 5 7 8 8 9 8 9 10 9 9 9 8 6 5 4 4 2 1 1 1 2 2 2 3 4 3 3 2 2 2 1 2 2 2 1 1 2 1 1
9 7 7 3 2 4 3 5 6 6 7 7 8 9 10 10 9 9 9 9 9 8 6 5 3 3 2 2 2 1 1 1 2 3 3 3 2 1 2 2 2 2 2 2 1 1 2 2 0
9 7 7 6 5 5 5 3 5 5 4 6 8 8 10 11 10 10 9 8 8 8 7 5 4 3 2 2 1 1 1 1 1 2 2 2 2 1 2 1 2 1 1 1 1 1 2 2 2
8 6 8 8 7 5 7 4 5 7 8 8 10 10 10 10 10 10 10 8 7 8 7 6 5 4 3 1 1 1 1 1 1 1 1 2 1 1 1 1 0 1 1 1 2 2 2 2 2
10 7 7 8 7 8 8 6 4 9 9 10 10 10 10 11 11 11 10 9 7 8 7 7 5 4 3 1 1 1 1 1 1 1 1 1 1 1 0 1 1 0 0 1 1 2 2 3 3
10 9 8 8 6 8 10 7 4 7 9 10 9 10 9 9 9 9 9 9 7 7 7 7 6 4 3 2 1 1 2 2 2 2 1 0 1 1 1 1 1 1 1 1 1 1 2 2 2
10 8 5 6 5 7 7 5 2 5 7 9 10 10 10 9 9 8 8 9 7 7 7 7 7 5 3 3 2 1 1 1 1 1 1 1 0 0 1 1 1 1 1 1 1 1 1 2 2
11 9 7 7 6 7 5 3 1 3 5 9 11 11 11 10 9 9 8 9 8 7 7 7 7 5 4 3 2 1 0 0 1 1 2 1 1 1 1 1 1 1 1 1 1 1 1 1 2
11 10 10 10 9 8 4 1 3 3 5 9 10 11 11 10 9 8 8 8 8 7 7 7 6 5 4 4 3 2 1 1 2 2 2 2 2 1 2 1 1 1 1 2 2 1 2 2 2
12 11 9 7 6 8 7 5 4 6 5 7 10 11 10 9 9 9 8 7 6 6 6 6 6 5 4 4 3 2 2 1 1 1 1 2 2 2 2 1 1 1 1 1 1 1 1 1 2
10 11 10 9 6 6 6 3 2 6 6 7 9 10 10 9 9 9 8 7 5 5 6 5 6 5 5 4 3 2 2 2 1 0 1 1 2 2 1 1 1 1 1 1 1 1 1 1 2
11 9 9 8 6 6 6 3 2 4 7 8 9 10 9 8 9 9 8 7 5 4 4 4 5 5 5 4 3 2 1 1 1 1 1 1 1 1 1 1 1 1 1 1 1 2 2 2 2
Wind_Direction
200 214 217 236 251 250 38 47 48 48 52 47 43 47 52 49 46 71 73 60 76 99 107 110 105 99 95 98 105 108 116 122 127 134 136 137 136 133 132 135 140 148 157 160 161 163 158 161 161
221 225 229 247 276 26 49 49 50 48 56 58 56 55 59 57 62 81 73 61 76 100 106 105 110 101 96 100 104 106 110 112 121 129 133 134 134 132 136 142 148 151 154 158 166 163 165 167 170
246 248 256 248 13 42 48 51 58 56 56 58 67 60 54 58 66 76 79 78 77 88 99 109 118 111 106 106 110 110 109 109 115 124 130 138 141 146 152 158 155 152 148 147 146 166 174 175 177
248 244 241 302 30 46 52 53 53 59 57 56 65 70 65 62 75 82 84 77 75 87 97 113 120 117 115 113 113 112 113 114 116 116 121 135 149 153 156 161 162 157 149 143 151 168 181 186 189
249 266 268 14 47 56 57 58 56 59 54 60 72 80 78 74 81 84 81 77 77 82 96 111 117 118 121 120 119 119 119 119 116 110 109 125 144 155 158 159 157 160 167 171 187 191 192 195 200
264 273 323 36 57 62 62 55 56 61 64 66 77 85 78 84 86 79 77 73 78 79 92 113 117 117 120 126 126 128 130 126 121 119 116 131 148 156 163 163 161 168 183 194 208 208 201 199 204
261 292 337 24 65 64 59 57 56 61 60 61 77 87 86 86 91 85 79 73 70 76 83 98 113 119 122 122 128 136 137 138 138 135 133 143 157 163 164 163 165 172 179 190 196 197 200 204 210
259 301 339 32 53 65 66 66 61 64 67 64 69 81 95 99 96 86 75 70 65 65 73 77 88 105 121 131 132 136 142 145 150 152 151 155 165 171 172 167 168 176 179 184 184 187 199 209 212
257 320 349 36 52 68 73 81 76 84 80 71 71 84 102 108 95 85 76 69 63 64 66 68 65 74 90 110 120 137 146 146 153 155 159 163 171 169 168 156 163 173 178 183 187 190 197 211 213
277 334 2 30 50 68 71 80 96 88 82 85 86 91 104 104 93 81 72 70 62 55 63 64 60 50 67 84 107 125 128 136 144 125 133 139 153 163 122 137 165 171 178 181 189 195 196 207 210
284 320 332 17 42 58 75 76 81 92 82 87 99 103 105 104 97 89 81 78 74 67 61 64 65 49 43 56 88 99 109 118 119 105 98 92 83 94 104 125 150 177 178 180 179 194 201 205 190
247 304 343 41 43 57 76 79 80 79 94 103 109 115 115 110 101 97 94 90 85 77 72 62 61 57 45 52 65 98 96 101 100 103 81 75 80 53 86 96 120 163 147 137 137 141 156 155 170
309 317 341 37 88 87 92 95 95 95 100 105 114 118 115 106 103 94 90 91 90 84 81 75 64 58 46 49 39 71 77 81 88 90 84 61 80 62 53 54 48 40 80 104 99 102 89 94 236
289 317 316 295 131 124 116 112 115 109 107 114 121 124 113 103 103 100 93 90 87 81 80 79 78 80 62 62 57 60 71 87 85 88 84 69 79 77 57 67 51 44 39 56 72 110 136 163 187
283 290 272 260 223 188 129 109 117 129 128 130 138 134 119 118 113 109 102 94 92 86 83 87 91 86 76 64 54 67 69 83 85 92 91 78 70 68 58 57 67 52 55 56 62 20 13 155 175
258 249 248 252 234 208 186 145 144 154 147 144 147 137 131 124 120 115 111 103 97 92 85 77 76 86 85 77 55 60 62 75 83 87 90 87 76 67 58 62 61 81 100 93 104 118 62 31 360
249 247 238 220 237 221 209 146 150 170 153 147 152 145 143 136 124 118 121 113 104 98 93 84 74 79 80 83 79 73 77 72 78 84 83 82 78 62 49 65 52 52 72 49 8 59 72 94 338
265 264 253 233 217 223 221 152 158 167 158 157 161 155 149 143 141 142 131 119 112 106 100 93 88 88 97 88 87 78 77 74 82 86 84 77 64 60 44 78 55 39 69 46 26 10 352 335 255
274 280 279 266 226 229 197 153 156 157 174 165 159 156 146 147 148 140 132 126 122 115 110 105 96 90 85 83 82 75 79 89 93 101 93 88 79 61 52 39 39 45 72 63 32 12 320 289 301
274 280 282 260 222 257 219 157 157 175 186 180 168 161 155 153 152 142 139 137 133 129 127 122 117 109 109 86 79 103 87 92 96 94 101 100 93 67 77 57 17 32 41 52 28 350 321 307 354
277 278 284 294 285 282 269 198 161 177 210 178 182 174 162 157 162 154 147 143 140 137 135 130 118 105 92 90 94 89 100 90 73 105 117 115 106 82 54 67 40 5 34 46 324 323 335 326 315
273 278 285 288 284 277 269 250 185 181 195 195 186 180 168 156 160 157 150 147 149 139 132 124 120 113 99 94 59 53 77 57 43 72 92 111 103 104 100 100 71 333 18 28 322 19 331 318 321
273 265 284 294 287 282 264 262 192 176 194 197 189 174 162 159 159 158 155 154 149 139 135 127 119 112 109 100 63 22 16 32 50 52 87 114 131 119 169 144 115 38 8 19 353 355 336 341 341
270 277 283 284 274 267 260 256 193 186 196 185 176 170 160 155 152 151 151 148 146 143 137 133 124 117 118 113 77 50 358 15 20 358 358 214 145 151 137 105 89 61 9 17 351 341 330 335 345
259 264 278 276 261 259 261 257 185 176 176 166 165 158 153 152 151 150 154 150 148 146 140 134 133 134 137 137 124 100 355 342 329 312 327 335 2 59 76 49 66 36 17 347 340 300 323 338 338
249 245 251 272 273 274 248 230 153 128 147 141 147 148 150 153 156 158 159 154 154 153 146 139 141 145 145 141 132 112 111 292 329 342 347 3 352 33 70 89 83 52 357 350 13 344 332 345 332
256 255 254 261 270 282 279 134 142 165 138 138 140 144 146 154 156 155 157 156 159 157 153 148 146 146 147 147 140 134 125 18 17 20 3 11 355 15 67 83 76 45 10 359 20 359 355 1 335
250 267 271 262 269 281 282 247 197 177 166 152 145 142 143 147 149 146 145 146 145 151 154 151 148 150 144 143 158 153 153 119 75 19 12 4 11 27 35 24 43 46 9 6 351 349 352 339 331
245 252 265 281 283 275 278 283 124 165 166 164 152 146 146 149 148 146 142 136 139 147 146 153 155 154 151 156 154 144 145 149 147 61 348 360 13 22 9 353 356 21 35 8 343 336 348 328 321
258 259 265 269 275 276 278 269 192 170 157 161 151 142 140 140 135 134 130 128 132 129 132 148 158 160 153 143 137 127 116 128 132 94 13 22 36 29 5 351 342 346 41 34 2 333 335 328 332
Height
1488 1488 1489 1492 1490 1485 1479 1468 1463 1464 1464 1466 1467 1467 1471 1475 1480 1490 1489 1487 1485 1482 1481 1480 1480 1479 1478 1478 1478 1479 1480 1482 1483 1484 1486 1488 1490 1491 1493 1495 1496 1497 1499 1500 1501 1502 1503 1504 1505
1488 1489 1492 1490 1486 1486 1479 1467 1467 1466 1466 1468 1469 1471 1474 1479 1483 1487 1488 1487 1485 1483 1481 1480 1480 1479 1479 1479 1479 1480 1481 1482 1483 1484 1485 1487 1489 1491 1492 1494 1496 1497 1498 1499 1500 1501 1502 1503 1504
1488 1490 1491 1484 1481 1481 1478 1467 1466 1466 1467 1468 1470 1474 1479 1484 1487 1488 1488 1487 1486 1484 1482 1481 1480 1480 1480 1480 1480 1481 1481 1482 1483 1484 1485 1486 1488 1490 1492 1494 1495 1497 1498 1499 1500 1501 1502 1503 1503
1490 1490 1487 1481 1480 1471 1468 1466 1465 1467 1469 1470 1472 1478 1484 1488 1489 1490 1489 1488 1487 1485 1483 1482 1481 1481 1481 1481 1481 1481 1482 1483 1484 1484 1484 1484 1486 1489 1492 1494 1495 1497 1498 1499 1499 1500 1501 1502 1502
1492 1488 1482 1482 1476 1467 1465 1466 1467 1469 1470 1472 1475 1481 1487 1490 1491 1491 1490 1489 1488 1487 1485 1484 1483 1482 1482 1482 1482 1482 1483 1484 1485 1485 1484 1484 1485 1489 1492 1494 1495 1497 1498 1498 1499 1499 1500 1501 1501
1491 1483 1486 1484 1475 1468 1467 1468 1469 1471 1473 1475 1478 1483 1489 1492 1492 1492 1492 1491 1490 1489 1487 1485 1484 1483 1483 1482 1482 1483 1484 1485 1485 1486 1485 1485 1486 1490 1492 1494 1496 1497 1498 1498 1498 1498 1499 1500 1500
1488 1482 1483 1478 1474 1472 1469 1470 1471 1473 1475 1477 1479 1484 1490 1493 1493 1493 1493 1492 1492 1490 1489 1487 1486 1485 1484 1483 1483 1483 1484 1486 1487 1488 1488 1488 1490 1492 1494 1495 1496 1497 1498 1498 1498 1497 1498 1499 1500
1483 1479 1479 1474 1474 1473 1470 1471 1474 1476 1477 1480 1481 1485 1490 1493 1494 1495 1495 1494 1493 1493 1491 1489 1488 1487 1485 1485 1484 1485 1485 1487 1488 1490 1491 1492 1493 1494 1496 1497 1497 1498 1498 1498 1498 1498 1498 1499 1500
1480 1483 1482 1474 1473 1472 1470 1472 1476 1477 1479 1481 1484 1488 1491 1493 1495 1495 1496 1496 1495 1494 1493 1492 1490 1489 1487 1487 1486 1486 1487 1489 1490 1492 1493 1494 1495 1496 1497 1498 1498 1499 1499 1499 1499 1499 1499 1499 1500
1477 1483 1477 1469 1467 1468 1470 1472 1475 1477 1480 1484 1488 1490 1492 1494 1495 1496 1497 1497 1496 1496 1495 1494 1492 1491 1490 1489 1488 1489 1490 1492 1493 1494 1495 1496 1497 1498 1499 1499 1499 1499 1499 1499 1500 1500 1500 1500 1501
1475 1476 1471 1469 1468 1469 1470 1473 1476 1477 1482 1485 1489 1491 1493 1495 1496 1497 1498 1498 1498 1498 1497 1495 1494 1492 1491 1490 1490 1490 1492 1494 1495 1496 1497 1498 1499 1500 1500 1501 1500 1500 1500 1500 1500 1501 1501 1501 1502
1472 1471 1470 1469 1469 1470 1472 1474 1477 1479 1484 1487 1490 1492 1494 1495 1497 1498 1499 1500 1500 1499 1498 1497 1496 1494 1493 1491 1491 1492 1494 1496 1497 1497 1499 1499 1500 1501 1502 1502 1501 1501 1502 1502 1501 1502 1503 1503 1503
1472 1471 1470 1470 1469 1471 1473 1475 1478 1482 1485 1487 1490 1492 1494 1496 1498 1499 1500 1500 1501 1500 1500 1499 1498 1496 1495 1494 1494 1495 1496 1497 1498 1499 1500 1501 1501 1502 1503 1502 1502 1502 1503 1503 1502 1503 1504 1504 1505
1472 1470 1470 1470 1469 1470 1472 1475 1479 1483 1485 1487 1490 1492 1494 1496 1498 1500 1501 1502 1502 1502 1501 1501 1500 1499 1497 1496 1496 1497 1499 1500 1500 1501 1501 1502 1503 1503 1503 1503 1503 1503 1503 1503 1503 1504 1505 1505 1506
1472 1472 1472 1470 1469 1469 1472 1477 1479 1482 1485 1487 1490 1493 1495 1497 1499 1501 1502 1502 1503 1503 1503 1502 1502 1501 1500 1500 1500 1501 1501 1502 1503 1503 1503 1503 1504 1504 1504 1504 1504 1504 1504 1504 1504 1504 1505 1506 1506
1473 1476 1480 1472 1467 1467 1473 1484 1478 1481 1483 1486 1489 1492 1495 1498 1499 1501 1502 1503 1503 1504 1504 1504 1504 1503 1503 1502 1502 1503 1503 1504 1504 1505 1504 1504 1505 1505 1505 1505 1505 1505 1505 1505 1505 1505 1505 1506 1506
1474 1483 1481 1474 1466 1465 1470 1477 1476 1479 1481 1485 1488 1490 1494 1497 1499 1501 1502 1503 1504 1505 1505 1505 1505 1505 1505 1504 1504 1504 1505 1505 1506 1506 1506 1506 1506 1506 1506 1506 1505 1505 1505 1505 1505 1506 1506 1506 1506
1478 1475 1474 1472 1463 1464 1468 1472 1473 1476 1479 1483 1486 1489 1492 1495 1498 1500 1502 1503 1504 1505 1506 1506 1506 1506 1506 1506 1506 1506 1506 1507 1507 1506 1506 1506 1506 1506 1506 1506 1506 1506 1505 1505 1506 1506 1506 1506 1506
1464 1469 1473 1467 1459 1463 1467 1471 1472 1476 1478 1481 1484 1487 1490 1494 1497 1500 1502 1503 1505 1505 1506 1507 1507 1507 1507 1507 1507 1507 1507 1508 1508 1508 1507 1507 1507 1507 1506 1506 1506 1506 1505 1505 1506 1506 1506 1506 1506
1463 1470 1470 1462 1458 1461 1465 1469 1470 1473 1477 1479 1482 1485 1489 1492 1496 1499 1501 1503 1504 1505 1506 1506 1507 1507 1507 1507 1507 1508 1508 1508 1508 1508 1508 1507 1507 1507 1507 1506 1506 1506 1506 1506 1505 1505 1505 1506 1506
1465 1468 1468 1466 1461 1460 1466 1473 1472 1474 1476 1479 1480 1483 1486 1490 1494 1497 1500 1502 1504 1505 1505 1506 1506 1507 1507 1507 1507 1508 1508 1508 1508 1508 1508 1508 1507 1507 1507 1506 1506 1506 1506 1505 1505 1505 1505 1505 1505
1470 1461 1461 1464 1470 1475 1473 1488 1477 1474 1476 1477 1478 1480 1484 1488 1492 1496 1499 1501 1503 1504 1505 1506 1506 1506 1507 1507 1507 1508 1508 1508 1508 1508 1508 1508 1507 1507 1507 1506 1506 1506 1505 1505 1505 1505 1504 1504 1504
1462 1457 1460 1464 1471 1478 1475 1482 1479 1472 1477 1474 1474 1477 1481 1486 1490 1494 1497 1499 1502 1503 1504 1505 1506 1506 1506 1507 1507 1507 1508 1508 1508 1508 1508 1508 1507 1507 1507 1506 1506 1505 1505 1505 1504 1504 1503 1503 1503
1456 1458 1462 1466 1475 1492 1479 1481 1483 1471 1469 1468 1471 1476 1480 1484 1488 1492 1495 1498 1500 1502 1503 1504 1505 1505 1506 1506 1506 1507 1507 1507 1507 1507 1507 1507 1507 1507 1506 1506 1506 1505 1504 1504 1504 1503 1503 1502 1502
1458 1470 1489 1495 1498 1494 1470 1475 1475 1460 1458 1462 1468 1473 1478 1482 1487 1490 1494 1497 1499 1501 1502 1503 1504 1504 1505 1505 1506 1506 1506 1507 1506 1507 1507 1507 1507 1506 1506 1505 1505 1504 1504 1504 1503 1503 1502 1502 1502
1460 1467 1491 1506 1505 1488 1472 1478 1469 1457 1458 1461 1467 1472 1477 1481 1486 1489 1492 1495 1498 1500 1501 1502 1503 1504 1504 1505 1505 1505 1506 1506 1506 1506 1506 1506 1506 1505 1505 1504 1504 1503 1503 1503 1503 1502 1502 1501 1501
1460 1461 1460 1475 1481 1489 1478 1474 1465 1459 1459 1462 1466 1471 1476 1481 1485 1489 1492 1494 1497 1499 1500 1501 1502 1503 1504 1504 1504 1504 1505 1505 1505 1505 1505 1505 1504 1504 1504 1503 1503 1502 1502 1502 1502 1501 1501 1500 1500
1450 1453 1459 1470 1493 1500 1489 1483 1477 1467 1464 1463 1466 1471 1476 1481 1484 1488 1491 1494 1496 1498 1500 1501 1502 1502 1503 1503 1504 1504 1504 1504 1504 1504 1504 1503 1503 1503 1502 1502 1501 1501 1501 1501 1500 1500 1500 1499 1499
1453 1456 1459 1463 1468 1489 1498 1488 1462 1463 1462 1465 1466 1471 1476 1480 1483 1487 1490 1493 1496 1497 1499 1500 1501 1502 1502 1503 1503 1503 1503 1504 1504 1503 1503 1502 1502 1501 1500 1500 1500 1500 1500 1499 1499 1499 1499 1498 1498
1448 1452 1457 1473 1477 1476 1486 1484 1458 1458 1459 1462 1466 1471 1475 1479 1483 1487 1490 1493 1495 1497 1498 1499 1500 1501 1501 1501 1502 1502 1503 1503 1502 1502 1501 1501 1500 1500 1499 1499 1499 1499 1498 1498 1498 1498 1497 1497 1496